Home   Weather   Kwajalein   Past weeks

Flag for Marshall Islands Past Weather in Kwajalein, Marshall Islands — Yesterday and Last 2 Weeks

81 °F


Feels Like: 89 °F
Forecast: 81 / 88 °F
Wind: No wind

Location: Kwajalein / Bucholz

Current Time: Oct 23, 2016 at 1:33:02 AM

Latest Report: Oct 23, 2016 at 1:20 AM

Visibility: 10 mi

Pressure: 29.81 "Hg

Humidity: 90%

Dew Point: 78 °F

Location of KwajaleinLocation

Past Weather in Kwajalein — Graph


Kwajalein Temperature Yesterday

Maximum temperature yesterday: 87 °F (at 10:00 AM)
Minimum temperature yesterday: 80 °F (at 10:20 PM)
Average temperature yesterday: 83 °F

High & Low Weather Summary for the Past Weeks

High90 °F (Oct 11, 2:40 PM)98% (Oct 13, 4:20 PM)29.93 "Hg (Oct 13, 4:20 PM)
Low77 °F (Oct 19, 5:40 AM)59% (Oct 20, 3:00 PM)29.68 "Hg (Oct 13, 4:00 PM)
Average84 °F77%29.81 "Hg
* Reported Oct 8 12:00 AM — Oct 23 12:20 AM, Kwajalein, Weather by CustomWeather, © 2016

Note: Actual official high and low records may vary slightly from our data, if they occured in-between our weather recording intervals... More about our weather records


Kwajalein Weather History for the Previous 24 Hours

Scroll right to see more
Time TempWeatherWind HumidityBarometerVisibility
12:20 AM
Sun, Oct 23
81 °FClear.5 mph89%29.83 "Hg10 mi
12:00 AM81 °FClear.No wind87%29.83 "Hg10 mi
11:40 PM
Sat, Oct 22
81 °FPassing clouds.3 mph87%29.83 "Hg10 mi
11:20 PM80 °FPassing clouds.3 mph87%29.84 "Hg10 mi
11:00 PM80 °FClear.No wind86%29.84 "Hg10 mi
10:20 PM80 °FClear.5 mph87%29.84 "Hg10 mi
10:00 PM80 °FClear.3 mph87%29.83 "Hg10 mi
9:20 PM81 °FPassing clouds.6 mph86%29.84 "Hg10 mi
9:00 PM81 °FDrizzle. Overcast.7 mph86%29.84 "Hg7 mi
8:20 PM82 °FClear.3 mph85%29.83 "Hg10 mi
8:00 PM82 °FClear.3 mph84%29.83 "Hg10 mi
7:40 PM82 °FClear.5 mph84%29.81 "Hg10 mi
7:20 PM82 °FClear.8 mph84%29.81 "Hg10 mi
7:00 PM82 °FClear.8 mph86%29.80 "Hg10 mi
6:20 PM81 °FScattered clouds.8 mph88%29.81 "Hg10 mi
6:00 PM81 °FScattered clouds.8 mph86%29.81 "Hg10 mi
5:20 PM83 °FScattered clouds.No wind80%29.80 "Hg10 mi
5:00 PM84 °FLight rain. Broken clouds.7 mph77%29.80 "Hg7 mi
4:20 PM86 °FScattered clouds.7 mph73%29.78 "Hg10 mi
4:00 PM86 °FSunny.7 mph72%29.78 "Hg10 mi
3:40 PM86 °FSunny.7 mph71%29.77 "Hg10 mi
3:20 PM86 °FSunny.6 mph71%29.76 "Hg10 mi
3:00 PM86 °FSunny.7 mph72%29.76 "Hg10 mi
2:40 PM85 °FSunny.7 mph74%29.77 "Hg10 mi
2:20 PM85 °FScattered clouds.9 mph73%29.78 "Hg10 mi
2:00 PM84 °FSunny.6 mph74%29.79 "Hg10 mi
1:20 PM85 °FSunny.6 mph73%29.80 "Hg10 mi
1:00 PM85 °FScattered clouds.7 mph72%29.80 "Hg10 mi
12:20 PM85 °FPartly sunny.14 mph71%29.83 "Hg10 mi
12:00 PM85 °FSunny.7 mph72%29.83 "Hg10 mi
11:20 AM86 °FScattered clouds.13 mph73%29.84 "Hg10 mi
11:00 AM86 °FScattered clouds.13 mph72%29.85 "Hg10 mi
10:20 AM87 °FScattered clouds.8 mph72%29.86 "Hg10 mi
10:00 AM87 °FScattered clouds.10 mph72%29.86 "Hg10 mi
9:20 AM86 °FSunny.9 mph72%29.86 "Hg10 mi
9:00 AM85 °FSunny.12 mph73%29.85 "Hg10 mi
8:20 AM83 °FSunny.13 mph77%29.85 "Hg10 mi
8:00 AM83 °FThundershowers. Sunny.13 mph79%29.84 "Hg10 mi
7:20 AM82 °FMore clouds than sun.7 mph82%29.83 "Hg10 mi
7:00 AM82 °FMore clouds than sun.8 mph82%29.83 "Hg10 mi
6:40 AM82 °FBroken clouds.14 mph82%29.82 "Hg10 mi
6:20 AM82 °FPassing clouds.12 mph82%29.82 "Hg10 mi
6:00 AM82 °FClear.7 mph82%29.81 "Hg10 mi
5:20 AM82 °FClear.9 mph81%29.79 "Hg10 mi
5:00 AM82 °FPassing clouds.15 mph80%29.80 "Hg10 mi
4:20 AM82 °FClear.6 mph80%29.79 "Hg10 mi
4:00 AM82 °FClear.8 mph80%29.79 "Hg10 mi
3:20 AM82 °FClear.9 mph80%29.80 "Hg10 mi
3:00 AM82 °FClear.10 mph81%29.79 "Hg10 mi
2:40 AM83 °FPassing clouds.12 mph80%29.80 "Hg10 mi
2:20 AM83 °FPassing clouds.13 mph79%29.80 "Hg10 mi
2:00 AM83 °FClear.12 mph77%29.81 "Hg10 mi
1:40 AM83 °FClear.10 mph77%29.81 "Hg10 mi
1:20 AM83 °FPassing clouds.10 mph77%29.81 "Hg10 mi
1:00 AM83 °FPassing clouds.10 mph76%29.82 "Hg10 mi
Weather by CustomWeather, © 2016

See weather overviewHow to use our weather pages